Time,TemperatureF,DewpointF,PressureIn,WindDirection,WindDirectionDegrees,WindSpeedMPH,WindSpeedGustMPH,Humidity,HourlyPrecipIn,Conditions,Clouds,dailyrainin,SoftwareType,DateUTC
2013-05-13 00:00:00,54.1,41.8,29.32,SSW,204,0.0,0.0,63,0.00,,---,0.00,VWS V14.00,2013-05-13 05:00:00,
2013-05-13 00:03:00,54.1,42.2,29.32,SSW,204,0.0,0.0,64,0.00,,---,0.00,VWS V14.00,2013-05-13 05:03:00,
2013-05-13 00:06:00,54.1,42.2,29.32,SSW,204,0.0,0.0,64,0.00,,---,0.00,VWS V14.00,2013-05-13 05:06:00,
2013-05-13 00:09:00,54.1,42.6,29.32,SSW,204,0.0,0.0,65,0.00,,---,0.00,VWS V14.00,2013-05-13 05:09:00,
2013-05-13 00:15:00,54.1,42.6,29.32,SSW,204,0.0,0.0,65,0.00,,---,0.00,VWS V14.00,2013-05-13 05:15:00,
2013-05-13 00:18:00,54.1,42.6,29.32,SSW,204,0.0,0.0,65,0.00,,---,0.00,VWS V14.00,2013-05-13 05:18:00,
2013-05-13 00:21:00,54.1,42.6,29.32,SSW,204,0.0,0.0,65,0.00,,---,0.00,VWS V14.00,2013-05-13 05:21:00,
2013-05-13 00:24:00,53.9,42.5,29.32,SSW,204,0.0,0.0,65,0.00,,---,0.00,VWS V14.00,2013-05-13 05:24:00,
2013-05-13 00:27:00,53.9,42.5,29.32,SSW,204,0.0,0.0,65,0.00,,---,0.00,VWS V14.00,2013-05-13 05:27:00,
2013-05-13 00:33:00,53.9,42.5,29.32,SSW,204,0.0,0.0,65,0.00,,---,0.00,VWS V14.00,2013-05-13 05:33:00,
2013-05-13 00:36:00,53.9,42.5,29.32,SSW,204,0.0,0.0,65,0.00,,---,0.00,VWS V14.00,2013-05-13 05:36:00,
2013-05-13 00:39:00,53.9,42.5,29.32,SSW,204,0.0,0.0,65,0.00,,---,0.00,VWS V14.00,2013-05-13 05:39:00,
2013-05-13 00:45:00,53.9,42.9,29.32,SSW,204,0.0,0.0,66,0.00,,---,0.00,VWS V14.00,2013-05-13 05:45:00,
2013-05-13 00:48:00,53.9,42.9,29.32,SSW,204,0.0,0.0,66,0.00,,---,0.00,VWS V14.00,2013-05-13 05:48:00,
2013-05-13 00:51:00,53.9,42.9,29.32,SSW,204,0.0,0.0,66,0.00,,---,0.00,VWS V14.00,2013-05-13 05:51:00,
2013-05-13 00:54:00,53.9,42.9,29.32,SSW,204,0.0,0.0,66,0.00,,---,0.00,VWS V14.00,2013-05-13 05:54:00,
2013-05-13 00:57:00,53.9,42.9,29.32,SSW,204,0.0,0.0,66,0.00,,---,0.00,VWS V14.00,2013-05-13 05:57:00,
2013-05-13 01:00:00,53.9,42.9,29.32,SSW,204,0.0,0.0,66,0.00,,---,0.00,VWS V14.00,2013-05-13 06:00:00,
2013-05-13 01:03:00,53.9,42.9,29.32,SSW,204,0.0,0.0,66,0.00,,---,0.00,VWS V14.00,2013-05-13 06:03:00,
2013-05-13 01:06:00,54.1,43.0,29.32,SSW,204,0.0,0.0,66,0.00,,---,0.00,VWS V14.00,2013-05-13 06:06:00,
2013-05-13 01:09:00,53.9,42.9,29.32,SSW,204,0.0,0.0,66,0.00,,---,0.00,VWS V14.00,2013-05-13 06:09:00,
2013-05-13 01:12:00,53.9,42.5,29.32,SSW,204,0.0,0.0,65,0.00,,---,0.00,VWS V14.00,2013-05-13 06:12:00,
2013-05-13 01:15:00,53.9,42.9,29.32,SSW,204,0.0,0.0,66,0.00,,---,0.00,VWS V14.00,2013-05-13 06:15:00,
2013-05-13 01:18:00,53.9,42.9,29.32,SSW,204,0.0,0.0,66,0.00,,---,0.00,VWS V14.00,2013-05-13 06:18:00,
2013-05-13 01:25:00,54.1,42.6,29.32,SSW,204,0.0,0.0,65,0.00,,---,0.00,VWS V14.00,2013-05-13 06:25:00,
2013-05-13 01:28:00,54.3,43.2,29.32,SSW,204,0.0,0.0,66,0.00,,---,0.00,VWS V14.00,2013-05-13 06:28:00,
2013-05-13 01:31:00,54.3,43.2,29.32,SSW,204,0.0,0.0,66,0.00,,---,0.00,VWS V14.00,2013-05-13 06:31:00,
2013-05-13 01:34:00,54.3,43.2,29.32,SSW,204,0.0,0.0,66,0.00,,---,0.00,VWS V14.00,2013-05-13 06:34:00,
2013-05-13 01:40:00,54.5,43.4,29.32,SSW,204,0.0,0.0,66,0.00,,---,0.00,VWS V14.00,2013-05-13 06:40:00,
2013-05-13 01:46:00,54.3,43.6,29.32,SSW,204,0.0,0.0,67,0.00,,---,0.00,VWS V14.00,2013-05-13 06:46:00,
2013-05-13 01:49:00,54.3,43.6,29.32,SSW,204,0.0,0.0,67,0.00,,---,0.00,VWS V14.00,2013-05-13 06:49:00,
2013-05-13 01:51:00,54.3,43.6,29.32,SSW,204,0.0,0.0,67,0.00,,---,0.00,VWS V14.00,2013-05-13 06:51:00,
2013-05-13 01:52:00,54.3,44.0,29.32,SSW,204,0.0,0.0,68,0.00,,---,0.00,VWS V14.00,2013-05-13 06:52:00,
2013-05-13 01:55:00,54.3,44.0,29.32,SSW,204,0.0,0.0,68,0.00,,---,0.00,VWS V14.00,2013-05-13 06:55:00,
2013-05-13 01:58:00,54.3,44.4,29.32,SSW,204,0.0,0.0,69,0.00,,---,0.00,VWS V14.00,2013-05-13 06:58:00,
2013-05-13 02:04:00,54.3,44.4,29.32,SSW,204,0.0,0.0,69,0.00,,---,0.00,VWS V14.00,2013-05-13 07:04:00,
2013-05-13 02:07:00,54.1,43.8,29.32,SSW,204,0.0,0.0,68,0.00,,---,0.00,VWS V14.00,2013-05-13 07:07:00,
2013-05-13 02:10:00,54.1,43.8,29.32,SSW,204,0.0,0.0,68,0.00,,---,0.00,VWS V14.00,2013-05-13 07:10:00,
2013-05-13 02:13:00,54.1,43.4,29.32,SSW,204,0.0,0.0,67,0.00,,---,0.00,VWS V14.00,2013-05-13 07:13:00,
2013-05-13 02:16:00,54.1,43.0,29.32,SSW,204,0.0,0.0,66,0.00,,---,0.00,VWS V14.00,2013-05-13 07:16:00,
2013-05-13 02:19:00,54.1,43.0,29.32,SSW,204,0.0,0.0,66,0.00,,---,0.00,VWS V14.00,2013-05-13 07:19:00,
2013-05-13 02:21:00,54.1,43.0,29.32,SSW,204,0.0,0.0,66,0.00,,---,0.00,VWS V14.00,2013-05-13 07:21:00,
2013-05-13 02:22:00,54.1,43.0,29.32,SSW,204,0.0,0.0,66,0.00,,---,0.00,VWS V14.00,2013-05-13 07:22:00,
2013-05-13 02:28:00,54.1,43.0,29.32,SSW,204,0.0,0.0,66,0.00,,---,0.00,VWS V14.00,2013-05-13 07:28:00,
2013-05-13 02:31:00,53.9,43.2,29.32,SSW,204,0.0,0.0,67,0.00,,---,0.00,VWS V14.00,2013-05-13 07:31:00,
2013-05-13 02:36:00,54.1,43.4,29.32,SSW,204,0.0,0.0,67,0.00,,---,0.00,VWS V14.00,2013-05-13 07:36:00,
2013-05-13 02:37:00,54.1,43.8,29.32,SSW,204,0.0,0.0,68,0.00,,---,0.00,VWS V14.00,2013-05-13 07:37:00,
2013-05-13 02:40:00,54.3,44.0,29.32,SSW,204,0.0,0.0,68,0.00,,---,0.00,VWS V14.00,2013-05-13 07:40:00,
2013-05-13 02:43:00,54.1,43.8,29.32,SSW,204,0.0,0.0,68,0.00,,---,0.00,VWS V14.00,2013-05-13 07:43:00,
2013-05-13 02:49:00,54.1,44.2,29.32,SSW,204,0.0,0.0,69,0.00,,---,0.00,VWS V14.00,2013-05-13 07:49:00,
2013-05-13 02:51:00,54.1,44.2,29.32,SSW,204,0.0,0.0,69,0.00,,---,0.00,VWS V14.00,2013-05-13 07:51:00,
2013-05-13 02:52:00,54.1,44.6,29.32,SSW,204,0.0,0.0,70,0.00,,---,0.00,VWS V14.00,2013-05-13 07:52:00,
2013-05-13 02:58:00,53.9,44.4,29.32,SSW,204,0.0,0.0,70,0.00,,---,0.00,VWS V14.00,2013-05-13 07:58:00,
2013-05-13 03:01:00,53.9,44.8,29.32,SSW,204,0.0,0.0,71,0.00,,---,0.00,VWS V14.00,2013-05-13 08:01:00,
2013-05-13 03:04:00,53.9,44.8,29.32,SSW,204,0.0,0.0,71,0.00,,---,0.00,VWS V14.00,2013-05-13 08:04:00,
2013-05-13 03:07:00,53.9,44.8,29.32,SSW,204,0.0,0.0,71,0.00,,---,0.00,VWS V14.00,2013-05-13 08:07:00,
2013-05-13 03:10:00,53.9,44.8,29.32,SSW,204,0.0,0.0,71,0.00,,---,0.00,VWS V14.00,2013-05-13 08:10:00,
2013-05-13 03:13:00,53.9,44.8,29.32,SSW,204,0.0,0.0,71,0.00,,---,0.00,VWS V14.00,2013-05-13 08:13:00,
2013-05-13 03:16:00,53.9,45.1,29.32,SSW,204,0.0,0.0,72,0.00,,---,0.00,VWS V14.00,2013-05-13 08:16:00,
2013-05-13 03:19:00,53.8,45.0,29.32,SSW,204,0.0,0.0,72,0.00,,---,0.00,VWS V14.00,2013-05-13 08:19:00,
2013-05-13 03:21:00,53.8,45.0,29.32,SSW,204,0.0,0.0,72,0.00,,---,0.00,VWS V14.00,2013-05-13 08:21:00,
2013-05-13 03:22:00,53.8,45.0,29.32,SSW,204,0.0,0.0,72,0.00,,---,0.00,VWS V14.00,2013-05-13 08:22:00,
2013-05-13 03:28:00,53.6,44.8,29.32,SSW,204,0.0,0.0,72,0.00,,---,0.00,VWS V14.00,2013-05-13 08:28:00,
2013-05-13 03:34:00,53.4,44.6,29.32,SSW,204,0.0,0.0,72,0.00,,---,0.00,VWS V14.00,2013-05-13 08:34:00,
2013-05-13 03:36:00,53.4,44.6,29.32,SSW,204,0.0,0.0,72,0.00,,---,0.00,VWS V14.00,2013-05-13 08:36:00,
2013-05-13 03:37:00,53.4,45.0,29.32,SSW,204,0.0,0.0,73,0.00,,---,0.00,VWS V14.00,2013-05-13 08:37:00,
2013-05-13 03:43:00,53.2,44.8,29.32,SSW,204,0.0,0.0,73,0.00,,---,0.00,VWS V14.00,2013-05-13 08:43:00,
2013-05-13 03:49:00,53.0,44.6,29.32,SSW,204,0.0,0.0,73,0.00,,---,0.00,VWS V14.00,2013-05-13 08:49:00,
2013-05-13 03:51:00,53.0,44.6,29.32,SSW,204,0.0,0.0,73,0.00,,---,0.00,VWS V14.00,2013-05-13 08:51:00,
2013-05-13 03:52:00,53.0,44.6,29.32,SSW,204,0.0,0.0,73,0.00,,---,0.00,VWS V14.00,2013-05-13 08:52:00,
2013-05-13 03:58:00,52.9,44.5,29.32,SSW,204,0.0,0.0,73,0.00,,---,0.00,VWS V14.00,2013-05-13 08:58:00,
2013-05-13 04:01:00,52.7,44.3,29.32,SSW,204,0.0,0.0,73,0.00,,---,0.00,VWS V14.00,2013-05-13 09:01:00,
2013-05-13 04:04:00,52.7,44.3,29.32,SSW,204,0.0,0.0,73,0.00,,---,0.00,VWS V14.00,2013-05-13 09:04:00,
2013-05-13 04:10:00,52.7,44.3,29.32,SSW,204,0.0,0.0,73,0.00,,---,0.00,VWS V14.00,2013-05-13 09:10:00,
2013-05-13 04:13:00,52.7,44.3,29.32,SSW,204,0.0,0.0,73,0.00,,---,0.00,VWS V14.00,2013-05-13 09:13:00,
2013-05-13 04:16:00,52.5,44.1,29.32,SSW,204,0.0,0.0,73,0.00,,---,0.00,VWS V14.00,2013-05-13 09:16:00,
2013-05-13 04:19:00,52.5,44.1,29.32,SSW,204,0.0,0.0,73,0.00,,---,0.00,VWS V14.00,2013-05-13 09:19:00,
2013-05-13 04:21:00,52.5,44.1,29.32,SSW,204,0.0,0.0,73,0.00,,---,0.00,VWS V14.00,2013-05-13 09:21:00,
2013-05-13 04:22:00,52.5,44.1,29.32,SSW,204,0.0,0.0,73,0.00,,---,0.00,VWS V14.00,2013-05-13 09:22:00,
2013-05-13 04:25:00,52.5,44.1,29.32,SSW,204,0.0,0.0,73,0.00,,---,0.00,VWS V14.00,2013-05-13 09:25:00,
2013-05-13 04:31:00,52.3,43.9,29.32,SSW,204,0.0,0.0,73,0.00,,---,0.00,VWS V14.00,2013-05-13 09:31:00,
2013-05-13 04:36:00,52.3,44.3,29.32,SSW,204,0.0,0.0,74,0.00,,---,0.00,VWS V14.00,2013-05-13 09:36:00,
2013-05-13 04:37:00,52.3,44.3,29.32,SSW,204,0.0,0.0,74,0.00,,---,0.00,VWS V14.00,2013-05-13 09:37:00,
2013-05-13 04:40:00,52.3,44.3,29.32,SSW,204,0.0,0.0,74,0.00,,---,0.00,VWS V14.00,2013-05-13 09:40:00,
2013-05-13 04:43:00,52.1,44.1,29.32,SSW,204,0.0,0.0,74,0.00,,---,0.00,VWS V14.00,2013-05-13 09:43:00,
2013-05-13 04:46:00,52.0,44.3,29.32,SSW,204,0.0,0.0,75,0.00,,---,0.00,VWS V14.00,2013-05-13 09:46:00,
2013-05-13 04:49:00,52.0,44.3,29.35,SSW,204,0.0,0.0,75,0.00,,---,0.00,VWS V14.00,2013-05-13 09:49:00,
2013-05-13 04:52:00,52.0,44.3,29.35,SSW,204,0.0,0.0,75,0.00,,---,0.00,VWS V14.00,2013-05-13 09:52:00,
2013-05-13 04:58:00,52.0,44.3,29.35,SSW,204,0.0,0.0,75,0.00,,---,0.00,VWS V14.00,2013-05-13 09:58:00,
2013-05-13 05:01:00,51.8,44.1,29.32,SSW,204,0.0,0.0,75,0.00,,---,0.00,VWS V14.00,2013-05-13 10:01:00,
2013-05-13 05:04:00,51.8,44.1,29.32,SSW,204,0.0,0.0,75,0.00,,---,0.00,VWS V14.00,2013-05-13 10:04:00,
2013-05-13 05:06:00,51.6,44.3,29.32,SSW,204,0.0,0.0,76,0.00,,---,0.00,VWS V14.00,2013-05-13 10:06:00,
2013-05-13 05:10:00,51.6,44.3,29.32,SSW,204,0.0,0.0,76,0.00,,---,0.00,VWS V14.00,2013-05-13 10:10:00,
2013-05-13 05:13:00,51.6,44.6,29.32,SSW,204,0.0,0.0,77,0.00,,---,0.00,VWS V14.00,2013-05-13 10:13:00,
2013-05-13 05:16:00,51.4,44.5,29.35,SSW,204,0.0,0.0,77,0.00,,---,0.00,VWS V14.00,2013-05-13 10:16:00,
2013-05-13 05:19:00,51.4,44.5,29.35,SSW,204,0.0,0.0,77,0.00,,---,0.00,VWS V14.00,2013-05-13 10:19:00,
2013-05-13 05:22:00,51.4,44.5,29.35,SSW,204,0.0,0.0,77,0.00,,---,0.00,VWS V14.00,2013-05-13 10:22:00,
2013-05-13 05:25:00,51.4,44.8,29.35,SSW,204,0.0,0.0,78,0.00,,---,0.00,VWS V14.00,2013-05-13 10:25:00,
2013-05-13 05:28:00,51.4,44.8,29.35,SSW,204,0.0,0.0,78,0.00,,---,0.00,VWS V14.00,2013-05-13 10:28:00,
2013-05-13 05:31:00,51.4,44.8,29.35,SSW,204,0.0,0.0,78,0.00,,---,0.00,VWS V14.00,2013-05-13 10:31:00,
2013-05-13 05:34:00,51.4,45.1,29.35,SSW,204,0.0,0.0,79,0.00,,---,0.00,VWS V14.00,2013-05-13 10:34:00,
2013-05-13 05:36:00,51.4,45.1,29.35,SSW,204,0.0,0.0,79,0.00,,---,0.00,VWS V14.00,2013-05-13 10:36:00,
2013-05-13 05:43:00,51.1,44.8,29.35,SSW,204,0.0,0.0,79,0.00,,---,0.00,VWS V14.00,2013-05-13 10:43:00,
2013-05-13 05:46:00,51.1,44.8,29.35,SSW,204,0.0,0.0,79,0.00,,---,0.00,VWS V14.00,2013-05-13 10:46:00,
2013-05-13 05:49:00,51.1,45.1,29.35,SSW,204,0.0,0.0,80,0.00,,---,0.00,VWS V14.00,2013-05-13 10:49:00,
2013-05-13 05:51:00,51.1,45.1,29.35,SSW,204,0.0,0.0,80,0.00,,---,0.00,VWS V14.00,2013-05-13 10:51:00,
2013-05-13 05:55:00,50.9,44.9,29.35,SSW,204,0.0,0.0,80,0.00,,---,0.00,VWS V14.00,2013-05-13 10:55:00,
2013-05-13 06:01:00,50.7,44.8,29.35,SSW,204,0.0,0.0,80,0.00,,---,0.00,VWS V14.00,2013-05-13 11:01:00,
2013-05-13 06:04:00,50.5,44.6,29.35,SSW,204,0.0,0.0,80,0.00,,---,0.00,VWS V14.00,2013-05-13 11:04:00,
2013-05-13 06:06:00,50.5,44.6,29.35,SSW,204,0.0,0.0,80,0.00,,---,0.00,VWS V14.00,2013-05-13 11:06:00,
2013-05-13 06:10:00,50.3,44.4,29.35,SSW,204,0.0,0.0,80,0.00,,---,0.00,VWS V14.00,2013-05-13 11:10:00,
2013-05-13 06:13:00,50.0,43.7,29.35,SSW,204,0.0,0.0,79,0.00,,---,0.00,VWS V14.00,2013-05-13 11:13:00,
2013-05-13 06:16:00,50.0,43.7,29.35,SSW,204,0.0,0.0,79,0.00,,---,0.00,VWS V14.00,2013-05-13 11:16:00,
2013-05-13 06:19:00,49.8,43.6,29.35,SSW,204,0.0,0.0,79,0.00,,---,0.00,VWS V14.00,2013-05-13 11:19:00,
2013-05-13 06:22:00,49.8,43.6,29.35,SSW,204,0.0,0.0,79,0.00,,---,0.00,VWS V14.00,2013-05-13 11:22:00,
2013-05-13 06:25:00,49.8,43.2,29.35,SSW,204,0.0,0.0,78,0.00,,---,0.00,VWS V14.00,2013-05-13 11:25:00,
2013-05-13 06:31:00,49.8,42.5,29.35,SSW,204,0.0,0.0,76,0.00,,---,0.00,VWS V14.00,2013-05-13 11:31:00,
2013-05-13 06:34:00,49.8,42.2,29.35,SSW,204,0.0,0.0,75,0.00,,---,0.00,VWS V14.00,2013-05-13 11:34:00,
2013-05-13 06:36:00,49.8,42.2,29.35,SSW,204,0.0,0.0,75,0.00,,---,0.00,VWS V14.00,2013-05-13 11:36:00,
2013-05-13 06:40:00,49.8,41.9,29.35,SSW,204,0.0,0.0,74,0.00,,---,0.00,VWS V14.00,2013-05-13 11:40:00,
2013-05-13 06:43:00,50.0,41.7,29.35,SSW,204,0.0,0.0,73,0.00,,---,0.00,VWS V14.00,2013-05-13 11:43:00,
2013-05-13 06:46:00,50.2,41.8,29.35,SSW,204,0.0,0.0,73,0.00,,---,0.00,VWS V14.00,2013-05-13 11:46:00,
2013-05-13 06:52:00,50.3,42.0,29.35,SSW,204,0.0,0.0,73,0.00,,---,0.00,VWS V14.00,2013-05-13 11:52:00,
2013-05-13 06:55:00,50.5,41.8,29.35,SSW,204,0.0,0.0,72,0.00,,---,0.00,VWS V14.00,2013-05-13 11:55:00,
2013-05-13 06:58:00,50.7,41.7,29.35,SSW,204,0.0,0.0,71,0.00,,---,0.00,VWS V14.00,2013-05-13 11:58:00,
2013-05-13 07:01:00,50.7,41.7,29.35,SSW,204,0.0,0.0,71,0.00,,---,0.00,VWS V14.00,2013-05-13 12:01:00,
2013-05-13 07:04:00,50.9,41.5,29.35,SSW,204,0.0,0.0,70,0.00,,---,0.00,VWS V14.00,2013-05-13 12:04:00,
2013-05-13 07:06:00,50.9,41.5,29.35,SSW,204,0.0,0.0,70,0.00,,---,0.00,VWS V14.00,2013-05-13 12:06:00,
2013-05-13 07:07:00,51.1,41.6,29.35,SSW,204,0.0,0.0,70,0.00,,---,0.00,VWS V14.00,2013-05-13 12:07:00,
2013-05-13 07:10:00,51.4,42.0,29.35,SSW,204,0.0,0.0,70,0.00,,---,0.00,VWS V14.00,2013-05-13 12:10:00,
2013-05-13 07:13:00,51.6,42.2,29.35,SSW,204,0.0,0.0,70,0.00,,---,0.00,VWS V14.00,2013-05-13 12:13:00,
2013-05-13 07:19:00,52.0,42.9,29.38,SSW,204,0.0,0.0,71,0.00,,---,0.00,VWS V14.00,2013-05-13 12:19:00,
2013-05-13 07:21:00,52.0,42.9,29.38,SSW,204,0.0,0.0,71,0.00,,---,0.00,VWS V14.00,2013-05-13 12:21:00,
2013-05-13 07:22:00,52.3,43.2,29.38,SSW,204,0.0,0.0,71,0.00,,---,0.00,VWS V14.00,2013-05-13 12:22:00,
2013-05-13 07:25:00,52.7,43.9,29.38,SSW,204,0.0,0.0,72,0.00,,---,0.00,VWS V14.00,2013-05-13 12:25:00,
2013-05-13 07:28:00,53.0,43.5,29.38,SSW,204,0.0,0.0,70,0.00,,---,0.00,VWS V14.00,2013-05-13 12:28:00,
2013-05-13 07:31:00,53.4,43.5,29.38,SSW,204,0.0,0.0,69,0.00,,---,0.00,VWS V14.00,2013-05-13 12:31:00,
2013-05-13 07:34:00,54.1,43.4,29.38,SSW,204,0.0,0.0,67,0.00,,---,0.00,VWS V14.00,2013-05-13 12:34:00,
2013-05-13 07:36:00,54.3,43.2,29.38,SSW,204,0.0,0.0,66,0.00,,---,0.00,VWS V14.00,2013-05-13 12:36:00,
2013-05-13 07:37:00,54.7,42.7,29.38,SSW,204,0.0,0.0,64,0.00,,---,0.00,VWS V14.00,2013-05-13 12:37:00,
2013-05-13 07:41:00,54.8,42.1,29.38,South,174,2.2,3.1,62,0.00,,---,0.00,VWS V14.00,2013-05-13 12:41:00,
2013-05-13 07:44:00,55.2,41.1,29.38,South,174,2.7,3.1,59,0.00,,---,0.00,VWS V14.00,2013-05-13 12:44:00,
2013-05-13 07:50:00,55.9,40.9,29.35,South,175,2.7,3.1,57,0.00,,---,0.00,VWS V14.00,2013-05-13 12:50:00,
2013-05-13 07:51:00,55.9,40.9,29.35,South,175,2.7,3.6,57,0.00,,---,0.00,VWS V14.00,2013-05-13 12:51:00,
2013-05-13 07:56:00,56.3,41.3,29.35,South,175,3.1,4.0,57,0.00,,---,0.00,VWS V14.00,2013-05-13 12:56:00,
2013-05-13 07:59:00,56.3,41.3,29.35,South,178,3.1,4.0,57,0.00,,---,0.00,VWS V14.00,2013-05-13 12:59:00,
2013-05-13 08:02:00,56.3,41.7,29.35,South,169,4.0,4.9,58,0.00,,---,0.00,VWS V14.00,2013-05-13 13:02:00,
2013-05-13 08:05:00,56.3,41.7,29.35,South,172,3.6,4.9,58,0.00,,---,0.00,VWS V14.00,2013-05-13 13:05:00,
2013-05-13 08:08:00,56.5,41.4,29.35,SSE,161,4.0,4.9,57,0.00,,---,0.00,VWS V14.00,2013-05-13 13:08:00,
2013-05-13 08:11:00,56.5,41.4,29.35,South,170,4.0,5.4,57,0.00,,---,0.00,VWS V14.00,2013-05-13 13:11:00,
2013-05-13 08:17:00,56.8,41.3,29.35,South,172,4.0,5.8,56,0.00,,---,0.00,VWS V14.00,2013-05-13 13:17:00,
2013-05-13 08:20:00,56.8,41.3,29.35,SSE,165,4.5,5.8,56,0.00,,---,0.00,VWS V14.00,2013-05-13 13:20:00,
2013-05-13 08:21:00,56.8,41.3,29.35,South,175,4.9,5.8,56,0.00,,---,0.00,VWS V14.00,2013-05-13 13:21:00,
2013-05-13 08:23:00,56.8,40.8,29.35,South,179,4.0,4.9,55,0.00,,---,0.00,VWS V14.00,2013-05-13 13:23:00,
2013-05-13 08:29:00,57.0,41.0,29.35,SSE,165,5.4,5.4,55,0.00,,---,0.00,VWS V14.00,2013-05-13 13:29:00,
2013-05-13 08:32:00,57.2,41.2,29.35,South,176,5.4,5.8,55,0.00,,---,0.00,VWS V14.00,2013-05-13 13:32:00,
2013-05-13 08:35:00,57.2,41.6,29.35,South,171,6.3,6.3,56,0.00,,---,0.00,VWS V14.00,2013-05-13 13:35:00,
2013-05-13 08:41:00,57.5,42.0,29.35,SSE,158,4.0,5.8,56,0.00,,---,0.00,VWS V14.00,2013-05-13 13:41:00,
2013-05-13 08:47:00,57.9,41.8,29.35,South,173,5.4,6.7,55,0.00,,---,0.00,VWS V14.00,2013-05-13 13:47:00,
2013-05-13 08:51:00,58.1,42.0,29.35,SSE,168,5.4,6.7,55,0.00,,---,0.00,VWS V14.00,2013-05-13 13:51:00,
2013-05-13 08:53:00,58.4,42.3,29.35,South,169,4.9,6.3,55,0.00,,---,0.00,VWS V14.00,2013-05-13 13:53:00,
2013-05-13 08:56:00,58.8,42.2,29.35,South,182,4.0,6.3,54,0.00,,---,0.00,VWS V14.00,2013-05-13 13:56:00,
2013-05-13 08:59:00,59.0,42.4,29.35,South,172,5.4,6.3,54,0.00,,---,0.00,VWS V14.00,2013-05-13 13:59:00,
2013-05-13 09:02:00,59.0,41.4,29.35,South,170,5.4,6.3,52,0.00,,---,0.00,VWS V14.00,2013-05-13 14:02:00,
2013-05-13 09:05:00,59.0,41.4,29.35,SSE,166,5.4,6.3,52,0.00,,---,0.00,VWS V14.00,2013-05-13 14:05:00,
2013-05-13 09:06:00,59.0,41.4,29.35,South,182,5.4,6.3,52,0.00,,---,0.00,VWS V14.00,2013-05-13 14:06:00,
2013-05-13 09:08:00,59.0,41.4,29.35,SSE,149,4.5,6.3,52,0.00,,---,0.00,VWS V14.00,2013-05-13 14:08:00,
2013-05-13 09:11:00,58.8,41.2,29.35,SSE,160,4.0,6.3,52,0.00,,---,0.00,VWS V14.00,2013-05-13 14:11:00,
2013-05-13 09:14:00,58.8,41.7,29.35,South,170,5.8,6.3,53,0.00,,---,0.00,VWS V14.00,2013-05-13 14:14:00,
2013-05-13 09:17:00,58.8,41.7,29.38,South,170,3.6,6.3,53,0.00,,---,0.00,VWS V14.00,2013-05-13 14:17:00,
2013-05-13 09:20:00,59.2,42.1,29.38,SSE,159,5.4,6.3,53,0.00,,---,0.00,VWS V14.00,2013-05-13 14:20:00,
2013-05-13 09:26:00,59.7,43.0,29.38,SSE,166,4.9,6.3,54,0.00,,---,0.00,VWS V14.00,2013-05-13 14:26:00,
2013-05-13 09:29:00,60.1,43.4,29.38,South,172,5.4,6.3,54,0.00,,---,0.00,VWS V14.00,2013-05-13 14:29:00,
2013-05-13 09:32:00,60.2,43.5,29.35,SSE,166,5.4,6.3,54,0.00,,---,0.00,VWS V14.00,2013-05-13 14:32:00,
2013-05-13 09:35:00,60.6,43.4,29.35,South,171,5.4,6.3,53,0.00,,---,0.00,VWS V14.00,2013-05-13 14:35:00,
2013-05-13 09:38:00,60.8,43.1,29.35,SSE,164,5.8,6.3,52,0.00,,---,0.00,VWS V14.00,2013-05-13 14:38:00,
2013-05-13 09:41:00,60.8,43.1,29.35,South,181,6.3,6.3,52,0.00,,---,0.00,VWS V14.00,2013-05-13 14:41:00,
2013-05-13 09:44:00,61.0,42.7,29.35,South,170,4.0,6.7,51,0.00,,---,0.00,VWS V14.00,2013-05-13 14:44:00,
2013-05-13 09:50:00,61.0,42.2,29.35,SSE,155,5.4,6.7,50,0.00,,---,0.00,VWS V14.00,2013-05-13 14:50:00,
2013-05-13 09:51:00,61.0,42.7,29.35,South,176,5.4,6.7,51,0.00,,---,0.00,VWS V14.00,2013-05-13 14:51:00,
2013-05-13 09:53:00,61.1,42.9,29.35,SSE,159,5.4,5.8,51,0.00,,---,0.00,VWS V14.00,2013-05-13 14:53:00,
2013-05-13 09:56:00,61.1,42.9,29.35,South,171,5.4,5.8,51,0.00,,---,0.00,VWS V14.00,2013-05-13 14:56:00,
2013-05-13 09:59:00,61.5,43.2,29.35,SSE,156,3.6,6.3,51,0.00,,---,0.00,VWS V14.00,2013-05-13 14:59:00,
2013-05-13 10:02:00,61.9,43.6,29.35,South,179,5.4,6.3,51,0.00,,---,0.00,VWS V14.00,2013-05-13 15:02:00,
2013-05-13 10:06:00,62.2,43.4,29.35,SSE,159,4.9,6.3,50,0.00,,---,0.00,VWS V14.00,2013-05-13 15:06:00,
2013-05-13 10:08:00,62.4,43.5,29.35,SSE,148,5.4,6.3,50,0.00,,---,0.00,VWS V14.00,2013-05-13 15:08:00,
2013-05-13 10:11:00,62.8,43.3,29.35,SSE,158,5.8,6.3,49,0.00,,---,0.00,VWS V14.00,2013-05-13 15:11:00,
2013-05-13 10:17:00,62.9,43.0,29.35,SSE,148,6.3,6.3,48,0.00,,---,0.00,VWS V14.00,2013-05-13 15:17:00,
2013-05-13 10:20:00,62.9,42.4,29.35,SSE,153,4.0,6.3,47,0.00,,---,0.00,VWS V14.00,2013-05-13 15:20:00,
2013-05-13 10:21:00,63.1,42.6,29.35,SSE,167,5.8,6.3,47,0.00,,---,0.00,VWS V14.00,2013-05-13 15:21:00,
2013-05-13 10:23:00,63.1,42.6,29.35,South,170,5.4,8.1,47,0.00,,---,0.00,VWS V14.00,2013-05-13 15:23:00,
2013-05-13 10:26:00,63.1,42.0,29.35,South,172,5.8,8.1,46,0.00,,---,0.00,VWS V14.00,2013-05-13 15:26:00,
2013-05-13 10:29:00,63.3,42.2,29.35,SSW,196,4.0,8.1,46,0.00,,---,0.00,VWS V14.00,2013-05-13 15:29:00,
2013-05-13 10:32:00,63.7,42.5,29.35,SSE,149,6.3,8.1,46,0.00,,---,0.00,VWS V14.00,2013-05-13 15:32:00,
2013-05-13 10:35:00,64.0,42.8,29.35,SSE,158,5.4,8.1,46,0.00,,---,0.00,VWS V14.00,2013-05-13 15:35:00,
2013-05-13 10:36:00,64.0,42.8,29.35,SE,139,4.0,8.1,46,0.00,,---,0.00,VWS V14.00,2013-05-13 15:36:00,
2013-05-13 10:41:00,64.7,42.9,29.35,SSE,168,6.3,8.7,45,0.00,,---,0.00,VWS V14.00,2013-05-13 15:41:00,
2013-05-13 10:47:00,65.1,42.7,29.35,SSE,149,5.4,8.7,44,0.00,,---,0.00,VWS V14.00,2013-05-13 15:47:00,
2013-05-13 10:50:00,65.3,42.8,29.35,SSE,166,6.7,8.7,44,0.00,,---,0.00,VWS V14.00,2013-05-13 15:50:00,
2013-05-13 10:51:00,65.5,43.0,29.35,South,175,6.7,8.7,44,0.00,,---,0.00,VWS V14.00,2013-05-13 15:51:00,
2013-05-13 10:56:00,65.8,42.7,29.35,SSE,151,6.3,8.3,43,0.00,,---,0.00,VWS V14.00,2013-05-13 15:56:00,
2013-05-13 11:02:00,66.2,42.4,29.35,SSE,165,5.4,8.7,42,0.00,,---,0.00,VWS V14.00,2013-05-13 16:02:00,
2013-05-13 11:05:00,66.4,42.6,29.35,South,171,5.4,8.7,42,0.00,,---,0.00,VWS V14.00,2013-05-13 16:05:00,
2013-05-13 11:06:00,66.5,42.8,29.35,SSW,199,8.7,8.7,42,0.00,,---,0.00,VWS V14.00,2013-05-13 16:06:00,
2013-05-13 11:08:00,66.5,42.1,29.35,South,170,8.1,8.7,41,0.00,,---,0.00,VWS V14.00,2013-05-13 16:08:00,
2013-05-13 11:11:00,66.5,42.1,29.35,South,178,5.8,10.1,41,0.00,,---,0.00,VWS V14.00,2013-05-13 16:11:00,
2013-05-13 11:14:00,66.7,41.7,29.35,SSE,163,8.3,10.1,40,0.00,,---,0.00,VWS V14.00,2013-05-13 16:14:00,
2013-05-13 11:17:00,66.7,41.7,29.35,SSE,164,5.4,10.1,40,0.00,,---,0.00,VWS V14.00,2013-05-13 16:17:00,
2013-05-13 11:20:00,66.7,41.7,29.35,South,177,6.7,10.1,40,0.00,,---,0.00,VWS V14.00,2013-05-13 16:20:00,
2013-05-13 11:21:00,66.7,41.7,29.35,South,171,6.3,10.1,40,0.00,,---,0.00,VWS V14.00,2013-05-13 16:21:00,
2013-05-13 11:23:00,66.9,43.1,29.35,South,170,6.3,8.1,42,0.00,,---,0.00,VWS V14.00,2013-05-13 16:23:00,
2013-05-13 11:26:00,67.1,42.6,29.35,South,171,7.6,10.1,41,0.00,,---,0.00,VWS V14.00,2013-05-13 16:26:00,
2013-05-13 11:29:00,67.3,42.1,29.35,SSE,160,7.6,10.1,40,0.00,,---,0.00,VWS V14.00,2013-05-13 16:29:00,
2013-05-13 11:32:00,67.4,42.3,29.35,SSW,202,7.2,10.1,40,0.00,,---,0.00,VWS V14.00,2013-05-13 16:32:00,
2013-05-13 11:35:00,67.6,42.5,29.35,South,177,8.1,10.1,40,0.00,,---,0.00,VWS V14.00,2013-05-13 16:35:00,
2013-05-13 11:38:00,67.8,42.6,29.35,SSE,159,8.3,11.0,40,0.00,,---,0.00,VWS V14.00,2013-05-13 16:38:00,
2013-05-13 11:41:00,67.8,42.6,29.35,South,175,6.3,11.0,40,0.00,,---,0.00,VWS V14.00,2013-05-13 16:41:00,
2013-05-13 11:47:00,68.2,43.0,29.32,South,172,8.1,11.0,40,0.00,,---,0.00,VWS V14.00,2013-05-13 16:47:00,
2013-05-13 11:50:00,68.2,43.0,29.32,SE,143,5.8,11.0,40,0.00,,---,0.00,VWS V14.00,2013-05-13 16:50:00,
2013-05-13 11:51:00,68.2,43.0,29.32,SSE,155,5.8,11.0,40,0.00,,---,0.00,VWS V14.00,2013-05-13 16:51:00,
2013-05-13 11:56:00,68.5,43.3,29.32,South,175,8.1,11.0,40,0.00,,---,0.00,VWS V14.00,2013-05-13 16:56:00,
2013-05-13 12:02:00,68.7,44.7,29.32,SSE,158,8.3,11.0,42,0.00,,---,0.00,VWS V14.00,2013-05-13 17:02:00,
2013-05-13 12:05:00,68.7,44.1,29.32,SSE,161,8.3,11.0,41,0.00,,---,0.00,VWS V14.00,2013-05-13 17:05:00,
2013-05-13 12:08:00,68.9,44.9,29.32,SSE,160,8.3,8.7,42,0.00,,---,0.00,VWS V14.00,2013-05-13 17:08:00,
2013-05-13 12:11:00,69.1,43.8,29.32,SSE,157,8.1,12.8,40,0.00,,---,0.00,VWS V14.00,2013-05-13 17:11:00,
2013-05-13 12:14:00,69.1,43.8,29.32,SSE,159,8.3,12.8,40,0.00,,---,0.00,VWS V14.00,2013-05-13 17:14:00,
2013-05-13 12:17:00,69.2,44.6,29.32,SE,145,5.4,12.8,41,0.00,,---,0.00,VWS V14.00,2013-05-13 17:17:00,
2013-05-13 12:20:00,69.4,44.7,29.32,SSE,162,5.4,12.8,41,0.00,,---,0.00,VWS V14.00,2013-05-13 17:20:00,
2013-05-13 12:21:00,69.4,44.7,29.32,SSE,167,6.3,12.8,41,0.00,,---,0.00,VWS V14.00,2013-05-13 17:21:00,
2013-05-13 12:23:00,69.6,44.2,29.32,ESE,121,12.8,12.8,40,0.00,,---,0.00,VWS V14.00,2013-05-13 17:23:00,
2013-05-13 12:29:00,69.6,44.2,29.32,South,179,8.1,12.8,40,0.00,,---,0.00,VWS V14.00,2013-05-13 17:29:00,
2013-05-13 12:32:00,69.8,44.4,29.32,SSE,160,8.3,12.8,40,0.00,,---,0.00,VWS V14.00,2013-05-13 17:32:00,
2013-05-13 12:35:00,70.1,45.4,29.32,SSE,152,7.6,12.8,41,0.00,,---,0.00,VWS V14.00,2013-05-13 17:35:00,
2013-05-13 12:36:00,70.1,45.4,29.32,SSE,158,7.2,12.8,41,0.00,,---,0.00,VWS V14.00,2013-05-13 17:36:00,
2013-05-13 12:41:00,70.3,44.9,29.32,SSE,156,5.8,9.6,40,0.00,,---,0.00,VWS V14.00,2013-05-13 17:41:00,
2013-05-13 12:47:00,70.7,45.2,29.29,SSE,152,5.4,10.1,40,0.00,,---,0.00,VWS V14.00,2013-05-13 17:47:00,
2013-05-13 12:53:00,71.0,45.5,29.29,South,170,3.6,11.0,40,0.00,,---,0.00,VWS V14.00,2013-05-13 17:53:00,
2013-05-13 12:56:00,71.2,45.7,29.29,South,182,7.6,11.0,40,0.00,,---,0.00,VWS V14.00,2013-05-13 17:56:00,
2013-05-13 13:02:00,71.6,45.3,29.29,South,182,5.4,11.0,39,0.00,,---,0.00,VWS V14.00,2013-05-13 18:02:00,
2013-05-13 13:05:00,71.8,45.5,29.29,SSE,149,10.5,11.0,39,0.00,,---,0.00,VWS V14.00,2013-05-13 18:05:00,
2013-05-13 13:06:00,71.8,45.5,29.29,SSE,164,6.3,11.0,39,0.00,,---,0.00,VWS V14.00,2013-05-13 18:06:00,
2013-05-13 13:11:00,71.8,45.5,29.29,South,177,10.5,11.4,39,0.00,,---,0.00,VWS V14.00,2013-05-13 18:11:00,
2013-05-13 13:14:00,71.8,45.5,29.29,SSE,153,6.3,11.4,39,0.00,,---,0.00,VWS V14.00,2013-05-13 18:14:00,
2013-05-13 13:20:00,72.1,46.5,29.29,SSE,165,7.6,11.4,40,0.00,,---,0.00,VWS V14.00,2013-05-13 18:20:00,
2013-05-13 13:21:00,72.1,46.5,29.29,SSE,165,7.6,11.4,40,0.00,,---,0.00,VWS V14.00,2013-05-13 18:21:00,
2013-05-13 13:23:00,72.3,46.0,29.29,SSE,157,8.1,10.5,39,0.00,,---,0.00,VWS V14.00,2013-05-13 18:23:00,
2013-05-13 13:29:00,72.8,47.1,29.29,SSE,166,4.9,10.5,40,0.00,,---,0.00,VWS V14.00,2013-05-13 18:29:00,
2013-05-13 13:32:00,73.0,46.6,29.29,SSE,161,2.2,10.5,39,0.00,,---,0.00,VWS V14.00,2013-05-13 18:32:00,
2013-05-13 13:36:00,73.4,47.0,29.29,SSE,147,5.4,10.5,39,0.00,,---,0.00,VWS V14.00,2013-05-13 18:36:00,
2013-05-13 13:42:00,73.9,47.4,29.29,ESE,123,4.0,10.1,39,0.00,,---,0.00,VWS V14.00,2013-05-13 18:42:00,
2013-05-13 13:45:00,74.3,47.8,29.29,South,188,5.8,10.1,39,0.00,,---,0.00,VWS V14.00,2013-05-13 18:45:00,
2013-05-13 13:48:00,74.5,47.9,29.26,South,170,8.1,10.1,39,0.00,,---,0.00,VWS V14.00,2013-05-13 18:48:00,
2013-05-13 13:51:00,74.5,47.9,29.26,SE,137,5.8,10.1,39,0.00,,---,0.00,VWS V14.00,2013-05-13 18:51:00,
2013-05-13 13:54:00,74.6,48.1,29.26,SSE,163,7.6,8.7,39,0.00,,---,0.00,VWS V14.00,2013-05-13 18:54:00,
2013-05-13 13:57:00,74.6,47.4,29.26,South,170,4.0,8.7,38,0.00,,---,0.00,VWS V14.00,2013-05-13 18:57:00,
2013-05-13 14:00:00,74.6,47.4,29.26,SSE,157,2.7,10.1,38,0.00,,---,0.00,VWS V14.00,2013-05-13 19:00:00,
2013-05-13 14:06:00,75.2,47.9,29.26,SSE,153,8.1,10.1,38,0.00,,---,0.00,VWS V14.00,2013-05-13 19:06:00,
2013-05-13 14:09:00,75.4,48.0,29.26,SSE,156,3.6,8.3,38,0.00,,---,0.00,VWS V14.00,2013-05-13 19:09:00,
2013-05-13 14:12:00,75.5,47.5,29.26,SSE,158,5.8,8.7,37,0.00,,---,0.00,VWS V14.00,2013-05-13 19:12:00,
2013-05-13 14:15:00,75.7,48.3,29.26,East,81,3.6,9.6,38,0.00,,---,0.00,VWS V14.00,2013-05-13 19:15:00,
2013-05-13 14:21:00,76.3,48.8,29.26,SE,140,0.0,9.6,38,0.00,,---,0.00,VWS V14.00,2013-05-13 19:21:00,
2013-05-13 14:24:00,76.6,49.8,29.26,South,169,8.3,8.3,39,0.00,,---,0.00,VWS V14.00,2013-05-13 19:24:00,
2013-05-13 14:27:00,76.8,49.3,29.26,South,176,4.0,9.6,38,0.00,,---,0.00,VWS V14.00,2013-05-13 19:27:00,
2013-05-13 14:30:00,77.0,48.7,29.26,South,175,5.4,9.6,37,0.00,,---,0.00,VWS V14.00,2013-05-13 19:30:00,
2013-05-13 14:33:00,77.3,49.1,29.26,SSE,159,5.4,9.6,37,0.00,,---,0.00,VWS V14.00,2013-05-13 19:33:00,
2013-05-13 14:36:00,77.5,49.9,29.26,SE,146,4.0,9.6,38,0.00,,---,0.00,VWS V14.00,2013-05-13 19:36:00,
2013-05-13 14:39:00,77.9,50.3,29.26,SSE,157,3.6,5.4,38,0.00,,---,0.00,VWS V14.00,2013-05-13 19:39:00,
2013-05-13 14:42:00,78.2,50.6,29.26,SSE,163,5.8,6.7,38,0.00,,---,0.00,VWS V14.00,2013-05-13 19:42:00,
2013-05-13 14:45:00,78.2,49.9,29.26,SE,142,3.6,7.2,37,0.00,,---,0.00,VWS V14.00,2013-05-13 19:45:00,
2013-05-13 14:48:00,78.6,50.2,29.23,SSE,161,4.0,7.2,37,0.00,,---,0.00,VWS V14.00,2013-05-13 19:48:00,
2013-05-13 14:51:00,79.0,49.8,29.23,SSE,159,3.6,3.6,36,0.00,,---,0.00,VWS V14.00,2013-05-13 19:51:00,
2013-05-13 14:54:00,79.1,49.9,29.23,SSE,160,4.0,5.8,36,0.00,,---,0.00,VWS V14.00,2013-05-13 19:54:00,
2013-05-13 14:57:00,79.3,50.1,29.23,South,171,3.1,5.8,36,0.00,,---,0.00,VWS V14.00,2013-05-13 19:57:00,
2013-05-13 15:00:00,79.5,51.0,29.23,ESE,112,3.1,5.8,37,0.00,,---,0.00,VWS V14.00,2013-05-13 20:00:00,
2013-05-13 15:03:00,79.9,50.5,29.23,SSW,195,6.3,6.3,36,0.00,,---,0.00,VWS V14.00,2013-05-13 20:03:00,
2013-05-13 15:06:00,80.0,50.7,29.23,South,191,2.2,2.2,36,0.00,,---,0.00,VWS V14.00,2013-05-13 20:06:00,
2013-05-13 15:09:00,80.2,50.9,29.23,SE,140,3.6,4.0,36,0.00,,---,0.00,VWS V14.00,2013-05-13 20:09:00,
2013-05-13 15:12:00,80.4,50.3,29.23,South,170,2.7,4.0,35,0.00,,---,0.00,VWS V14.00,2013-05-13 20:12:00,
2013-05-13 15:15:00,80.6,50.4,29.23,South,190,5.4,6.3,35,0.00,,---,0.00,VWS V14.00,2013-05-13 20:15:00,
2013-05-13 15:18:00,80.6,50.4,29.23,SSE,162,4.0,6.3,35,0.00,,---,0.00,VWS V14.00,2013-05-13 20:18:00,
2013-05-13 15:21:00,80.8,50.6,29.23,SSE,148,3.1,6.3,35,0.00,,---,0.00,VWS V14.00,2013-05-13 20:21:00,
2013-05-13 15:24:00,81.1,50.1,29.23,South,181,0.0,4.9,34,0.00,,---,0.00,VWS V14.00,2013-05-13 20:24:00,
2013-05-13 15:27:00,81.3,50.3,29.23,SSE,150,0.0,4.9,34,0.00,,---,0.00,VWS V14.00,2013-05-13 20:27:00,
2013-05-13 15:33:00,81.8,51.5,29.23,SSE,160,3.6,4.9,35,0.00,,---,0.00,VWS V14.00,2013-05-13 20:33:00,
2013-05-13 15:36:00,81.8,51.5,29.23,South,190,2.7,4.0,35,0.00,,---,0.00,VWS V14.00,2013-05-13 20:36:00,
2013-05-13 15:39:00,82.2,51.1,29.23,SSE,159,4.0,4.0,34,0.00,,---,0.00,VWS V14.00,2013-05-13 20:39:00,
2013-05-13 15:42:00,82.4,51.2,29.23,SE,143,0.0,4.0,34,0.00,,---,0.00,VWS V14.00,2013-05-13 20:42:00,
2013-05-13 15:45:00,82.6,51.4,29.23,SE,138,4.0,4.5,34,0.00,,---,0.00,VWS V14.00,2013-05-13 20:45:00,
2013-05-13 15:51:00,83.1,51.0,29.23,South,175,0.0,4.9,33,0.00,,---,0.00,VWS V14.00,2013-05-13 20:51:00,
2013-05-13 15:57:00,83.6,51.5,29.23,SSE,160,0.0,4.0,33,0.00,,---,0.00,VWS V14.00,2013-05-13 20:57:00,
2013-05-13 16:00:00,83.8,50.8,29.23,SSE,160,0.0,4.0,32,0.00,,---,0.00,VWS V14.00,2013-05-13 21:00:00,
2013-05-13 16:03:00,84.0,51.0,29.21,South,175,4.9,4.9,32,0.00,,---,0.00,VWS V14.00,2013-05-13 21:03:00,
2013-05-13 16:06:00,84.2,51.2,29.21,South,185,0.0,4.9,32,0.00,,---,0.00,VWS V14.00,2013-05-13 21:06:00,
2013-05-13 16:12:00,84.7,50.8,29.21,South,176,0.0,4.0,31,0.00,,---,0.00,VWS V14.00,2013-05-13 21:12:00,
2013-05-13 16:15:00,84.9,50.9,29.21,South,176,0.0,4.0,31,0.00,,---,0.00,VWS V14.00,2013-05-13 21:15:00,
2013-05-13 16:18:00,85.3,50.3,29.21,NNE,21,0.0,4.0,30,0.00,,---,0.00,VWS V14.00,2013-05-13 21:18:00,
2013-05-13 16:21:00,86.0,51.0,29.21,SSE,150,3.6,3.6,30,0.00,,---,0.00,VWS V14.00,2013-05-13 21:21:00,
2013-05-13 16:24:00,86.5,51.4,29.21,SSE,158,0.0,3.6,30,0.00,,---,0.00,VWS V14.00,2013-05-13 21:24:00,
2013-05-13 16:27:00,87.4,52.2,29.21,South,176,4.9,4.9,30,0.00,,---,0.00,VWS V14.00,2013-05-13 21:27:00,
2013-05-13 16:30:00,88.3,52.1,29.21,SSE,164,2.7,4.9,29,0.00,,---,0.00,VWS V14.00,2013-05-13 21:30:00,
2013-05-13 16:33:00,88.9,52.5,29.21,SSE,161,0.0,4.9,29,0.00,,---,0.00,VWS V14.00,2013-05-13 21:33:00,
2013-05-13 16:36:00,89.2,52.8,29.21,South,171,4.0,4.9,29,0.00,,---,0.00,VWS V14.00,2013-05-13 21:36:00,
2013-05-13 16:39:00,90.1,53.6,29.21,South,181,3.1,4.0,29,0.00,,---,0.00,VWS V14.00,2013-05-13 21:39:00,
2013-05-13 16:42:00,90.7,54.1,29.21,SE,145,2.7,4.0,29,0.00,,---,0.00,VWS V14.00,2013-05-13 21:42:00,
2013-05-13 16:45:00,91.2,53.6,29.21,SE,144,0.0,4.0,28,0.00,,---,0.00,VWS V14.00,2013-05-13 21:45:00,
2013-05-13 16:48:00,91.7,54.0,29.21,SE,144,0.0,4.0,28,0.00,,---,0.00,VWS V14.00,2013-05-13 21:48:00,
2013-05-13 16:51:00,92.6,54.8,29.21,SSE,153,0.0,0.0,28,0.00,,---,0.00,VWS V14.00,2013-05-13 21:51:00,
2013-05-13 16:57:00,93.9,54.9,29.21,SE,140,0.0,4.0,27,0.00,,---,0.00,VWS V14.00,2013-05-13 21:57:00,
2013-05-13 17:03:00,94.4,54.3,29.18,SE,128,5.8,6.3,26,0.00,,---,0.00,VWS V14.00,2013-05-13 22:03:00,
2013-05-13 17:06:00,94.1,54.0,29.18,SE,144,2.7,6.3,26,0.00,,---,0.00,VWS V14.00,2013-05-13 22:06:00,
2013-05-13 17:09:00,93.9,53.8,29.18,South,175,5.8,6.3,26,0.00,,---,0.00,VWS V14.00,2013-05-13 22:09:00,
2013-05-13 17:12:00,93.7,53.7,29.18,SSE,163,5.4,7.6,26,0.00,,---,0.00,VWS V14.00,2013-05-13 22:12:00,
2013-05-13 17:15:00,93.5,53.5,29.18,SE,137,3.1,7.6,26,0.00,,---,0.00,VWS V14.00,2013-05-13 22:15:00,
2013-05-13 17:18:00,93.4,53.4,29.21,SSW,198,3.6,7.6,26,0.00,,---,0.00,VWS V14.00,2013-05-13 22:18:00,
2013-05-13 17:21:00,93.4,53.4,29.21,SE,146,0.0,7.6,26,0.00,,---,0.00,VWS V14.00,2013-05-13 22:21:00,
2013-05-13 17:24:00,94.1,54.0,29.21,SSE,157,2.7,3.6,26,0.00,,---,0.00,VWS V14.00,2013-05-13 22:24:00,
2013-05-13 17:27:00,94.3,54.2,29.21,SE,143,2.7,4.9,26,0.00,,---,0.00,VWS V14.00,2013-05-13 22:27:00,
2013-05-13 17:30:00,94.4,54.3,29.21,SW,218,4.0,4.9,26,0.00,,---,0.00,VWS V14.00,2013-05-13 22:30:00,
2013-05-13 17:33:00,93.5,53.5,29.21,SSE,151,4.0,5.8,26,0.00,,---,0.00,VWS V14.00,2013-05-13 22:33:00,
2013-05-13 17:36:00,92.3,53.5,29.21,WSW,237,0.0,5.8,27,0.00,,---,0.00,VWS V14.00,2013-05-13 22:36:00,
2013-05-13 17:39:00,91.4,52.7,29.21,SW,222,0.0,3.6,27,0.00,,---,0.00,VWS V14.00,2013-05-13 22:39:00,
2013-05-13 17:42:00,90.5,52.0,29.21,SW,222,0.0,3.6,27,0.00,,---,0.00,VWS V14.00,2013-05-13 22:42:00,
2013-05-13 17:48:00,89.6,51.2,29.21,WSW,246,0.0,3.6,27,0.00,,---,0.00,VWS V14.00,2013-05-13 22:48:00,
2013-05-13 17:51:00,89.0,51.7,29.21,WSW,246,0.0,3.6,28,0.00,,---,0.00,VWS V14.00,2013-05-13 22:51:00,
2013-05-13 17:54:00,88.5,51.3,29.21,WSW,246,0.0,0.0,28,0.00,,---,0.00,VWS V14.00,2013-05-13 22:54:00,
2013-05-13 17:57:00,88.7,51.4,29.21,WSW,246,0.0,0.0,28,0.00,,---,0.00,VWS V14.00,2013-05-13 22:57:00,
2013-05-13 18:00:00,88.9,51.6,29.21,WSW,253,0.0,0.0,28,0.00,,---,0.00,VWS V14.00,2013-05-13 23:00:00,
2013-05-13 18:06:00,87.8,50.7,29.21,NNE,17,0.0,0.0,28,0.00,,---,0.00,VWS V14.00,2013-05-13 23:06:00,
2013-05-13 18:09:00,86.9,50.8,29.21,NNE,17,0.0,0.0,29,0.00,,---,0.00,VWS V14.00,2013-05-13 23:09:00,
2013-05-13 18:12:00,86.2,50.2,29.21,NNE,17,0.0,0.0,29,0.00,,---,0.00,VWS V14.00,2013-05-13 23:12:00,
2013-05-13 18:15:00,85.3,50.3,29.21,NNE,17,0.0,0.0,30,0.00,,---,0.00,VWS V14.00,2013-05-13 23:15:00,
2013-05-13 18:18:00,84.9,50.0,29.21,NNE,17,0.0,0.0,30,0.00,,---,0.00,VWS V14.00,2013-05-13 23:18:00,
2013-05-13 18:24:00,84.2,49.4,29.21,NNE,17,0.0,0.0,30,0.00,,---,0.00,VWS V14.00,2013-05-13 23:24:00,
2013-05-13 18:27:00,84.0,49.3,29.21,NNE,17,0.0,0.0,30,0.00,,---,0.00,VWS V14.00,2013-05-13 23:27:00,
2013-05-13 18:30:00,84.0,50.2,29.21,NNE,17,0.0,0.0,31,0.00,,---,0.00,VWS V14.00,2013-05-13 23:30:00,
2013-05-13 18:33:00,84.0,50.2,29.21,NNE,17,0.0,0.0,31,0.00,,---,0.00,VWS V14.00,2013-05-13 23:33:00,
2013-05-13 18:36:00,83.5,50.5,29.21,NNE,17,0.0,0.0,32,0.00,,---,0.00,VWS V14.00,2013-05-13 23:36:00,
2013-05-13 18:39:00,82.6,48.9,29.21,NNE,17,0.0,0.0,31,0.00,,---,0.00,VWS V14.00,2013-05-13 23:39:00,
2013-05-13 18:42:00,82.0,49.3,29.21,NNE,17,0.0,0.0,32,0.00,,---,0.00,VWS V14.00,2013-05-13 23:42:00,
2013-05-13 18:45:00,81.5,49.6,29.21,NNE,17,0.0,0.0,33,0.00,,---,0.00,VWS V14.00,2013-05-13 23:45:00,
2013-05-13 18:48:00,80.8,49.0,29.21,NNE,17,0.0,0.0,33,0.00,,---,0.00,VWS V14.00,2013-05-13 23:48:00,
2013-05-13 18:51:00,80.4,48.7,29.21,NNE,17,0.0,0.0,33,0.00,,---,0.00,VWS V14.00,2013-05-13 23:51:00,
2013-05-13 18:54:00,80.0,49.2,29.21,SW,222,0.0,0.0,34,0.00,,---,0.00,VWS V14.00,2013-05-13 23:54:00,
2013-05-13 18:57:00,79.7,48.1,29.21,SW,222,0.0,0.0,33,0.00,,---,0.00,VWS V14.00,2013-05-13 23:57:00,
2013-05-13 19:03:00,79.0,48.2,29.21,SW,222,0.0,0.0,34,0.00,,---,0.00,VWS V14.00,2013-05-14 00:03:00,
2013-05-13 19:06:00,78.6,47.9,29.21,SW,222,0.0,0.0,34,0.00,,---,0.00,VWS V14.00,2013-05-14 00:06:00,
2013-05-13 19:09:00,78.2,48.4,29.21,SW,222,0.0,0.0,35,0.00,,---,0.00,VWS V14.00,2013-05-14 00:09:00,
2013-05-13 19:12:00,77.9,47.3,29.21,SW,222,0.0,0.0,34,0.00,,---,0.00,VWS V14.00,2013-05-14 00:12:00,
2013-05-13 19:15:00,77.7,47.1,29.21,SW,222,0.0,0.0,34,0.00,,---,0.00,VWS V14.00,2013-05-14 00:15:00,
2013-05-13 19:18:00,77.3,46.8,29.21,SW,222,0.0,0.0,34,0.00,,---,0.00,VWS V14.00,2013-05-14 00:18:00,
2013-05-13 19:21:00,77.3,46.8,29.21,SW,222,0.0,0.0,34,0.00,,---,0.00,VWS V14.00,2013-05-14 00:21:00,
2013-05-13 19:24:00,77.0,47.3,29.21,SW,222,0.0,0.0,35,0.00,,---,0.00,VWS V14.00,2013-05-14 00:24:00,
2013-05-13 19:30:00,76.4,46.8,29.21,SW,222,0.0,0.0,35,0.00,,---,0.00,VWS V14.00,2013-05-14 00:30:00,
2013-05-13 19:33:00,76.1,47.2,29.18,SW,222,0.0,0.0,36,0.00,,---,0.00,VWS V14.00,2013-05-14 00:33:00,
2013-05-13 19:36:00,75.7,46.9,29.18,SW,222,0.0,0.0,36,0.00,,---,0.00,VWS V14.00,2013-05-14 00:36:00,
2013-05-13 19:39:00,75.5,46.7,29.18,SW,222,0.0,0.0,36,0.00,,---,0.00,VWS V14.00,2013-05-14 00:39:00,
2013-05-13 19:42:00,75.4,46.6,29.18,SW,222,0.0,0.0,36,0.00,,---,0.00,VWS V14.00,2013-05-14 00:42:00,
2013-05-13 19:45:00,75.2,46.4,29.18,SW,222,0.0,0.0,36,0.00,,---,0.00,VWS V14.00,2013-05-14 00:45:00,
2013-05-13 19:51:00,74.8,47.5,29.21,SW,222,0.0,0.0,38,0.00,,---,0.00,VWS V14.00,2013-05-14 00:51:00,
2013-05-13 19:55:00,74.3,47.1,29.21,SW,222,0.0,0.0,38,0.00,,---,0.00,VWS V14.00,2013-05-14 00:55:00,
2013-05-13 19:58:00,73.9,47.4,29.21,SW,222,0.0,0.0,39,0.00,,---,0.00,VWS V14.00,2013-05-14 00:58:00,
2013-05-13 20:01:00,73.6,47.8,29.21,SW,222,0.0,0.0,40,0.00,,---,0.00,VWS V14.00,2013-05-14 01:01:00,
2013-05-13 20:04:00,73.4,47.6,29.21,SW,222,0.0,0.0,40,0.00,,---,0.00,VWS V14.00,2013-05-14 01:04:00,
2013-05-13 20:06:00,73.2,47.5,29.21,SW,222,0.0,0.0,40,0.00,,---,0.00,VWS V14.00,2013-05-14 01:06:00,
2013-05-13 20:13:00,72.7,47.6,29.21,SW,222,0.0,0.0,41,0.00,,---,0.00,VWS V14.00,2013-05-14 01:13:00,
2013-05-13 20:19:00,71.9,47.6,29.21,SW,222,0.0,0.0,42,0.00,,---,0.00,VWS V14.00,2013-05-14 01:19:00,
2013-05-13 20:21:00,71.9,47.6,29.21,SW,222,0.0,0.0,42,0.00,,---,0.00,VWS V14.00,2013-05-14 01:21:00,
2013-05-13 20:22:00,71.9,47.6,29.21,SW,222,0.0,0.0,42,0.00,,---,0.00,VWS V14.00,2013-05-14 01:22:00,
2013-05-13 20:28:00,71.4,47.8,29.21,SW,222,0.0,0.0,43,0.00,,---,0.00,VWS V14.00,2013-05-14 01:28:00,
2013-05-13 20:31:00,71.0,47.4,29.21,SW,222,0.0,0.0,43,0.00,,---,0.00,VWS V14.00,2013-05-14 01:31:00,
2013-05-13 20:34:00,70.9,47.3,29.21,SW,222,0.0,0.0,43,0.00,,---,0.00,VWS V14.00,2013-05-14 01:34:00,
2013-05-13 20:36:00,70.7,47.7,29.21,SW,222,0.0,0.0,44,0.00,,---,0.00,VWS V14.00,2013-05-14 01:36:00,
2013-05-13 20:37:00,70.7,47.7,29.21,SW,222,0.0,0.0,44,0.00,,---,0.00,VWS V14.00,2013-05-14 01:37:00,
2013-05-13 20:43:00,70.3,47.4,29.21,SW,222,0.0,0.0,44,0.00,,---,0.00,VWS V14.00,2013-05-14 01:43:00,
2013-05-13 20:46:00,70.1,47.2,29.21,SW,222,0.0,0.0,44,0.00,,---,0.00,VWS V14.00,2013-05-14 01:46:00,
2013-05-13 20:49:00,70.0,47.1,29.21,SW,222,0.0,0.0,44,0.00,,---,0.00,VWS V14.00,2013-05-14 01:49:00,
2013-05-13 20:51:00,70.0,47.1,29.21,SW,222,0.0,0.0,44,0.00,,---,0.00,VWS V14.00,2013-05-14 01:51:00,
2013-05-13 20:52:00,70.0,47.1,29.21,SW,222,0.0,0.0,44,0.00,,---,0.00,VWS V14.00,2013-05-14 01:52:00,
2013-05-13 20:55:00,69.6,47.3,29.21,SW,222,0.0,0.0,45,0.00,,---,0.00,VWS V14.00,2013-05-14 01:55:00,
2013-05-13 20:58:00,69.6,47.3,29.21,SW,222,0.0,0.0,45,0.00,,---,0.00,VWS V14.00,2013-05-14 01:58:00,
2013-05-13 21:01:00,69.2,47.6,29.21,SW,222,0.0,0.0,46,0.00,,---,0.00,VWS V14.00,2013-05-14 02:01:00,
2013-05-13 21:04:00,69.2,47.6,29.21,SW,222,0.0,0.0,46,0.00,,---,0.00,VWS V14.00,2013-05-14 02:04:00,
2013-05-13 21:10:00,68.9,47.3,29.21,SW,222,0.0,0.0,46,0.00,,---,0.00,VWS V14.00,2013-05-14 02:10:00,
2013-05-13 21:16:00,68.7,47.7,29.21,SW,222,0.0,0.0,47,0.00,,---,0.00,VWS V14.00,2013-05-14 02:16:00,
2013-05-13 21:19:00,68.5,47.5,29.21,SW,222,0.0,0.0,47,0.00,,---,0.00,VWS V14.00,2013-05-14 02:19:00,
2013-05-13 21:21:00,68.5,47.5,29.21,SW,222,0.0,0.0,47,0.00,,---,0.00,VWS V14.00,2013-05-14 02:21:00,
2013-05-13 21:22:00,68.5,47.5,29.21,SW,222,0.0,0.0,47,0.00,,---,0.00,VWS V14.00,2013-05-14 02:22:00,
2013-05-13 21:25:00,68.3,47.9,29.21,SW,222,0.0,0.0,48,0.00,,---,0.00,VWS V14.00,2013-05-14 02:25:00,
2013-05-13 21:28:00,67.8,48.0,29.21,SW,222,0.0,0.0,49,0.00,,---,0.00,VWS V14.00,2013-05-14 02:28:00,
2013-05-13 21:31:00,67.6,48.9,29.21,SW,222,0.0,0.0,51,0.00,,---,0.00,VWS V14.00,2013-05-14 02:31:00,
2013-05-13 21:34:00,67.4,49.7,29.21,SW,222,0.0,0.0,53,0.00,,---,0.00,VWS V14.00,2013-05-14 02:34:00,
2013-05-13 21:37:00,67.1,49.4,29.21,SW,222,0.0,0.0,53,0.00,,---,0.00,VWS V14.00,2013-05-14 02:37:00,
2013-05-13 21:40:00,67.1,49.4,29.21,SW,222,0.0,0.0,53,0.00,,---,0.00,VWS V14.00,2013-05-14 02:40:00,
2013-05-13 21:43:00,66.9,49.2,29.21,SW,222,0.0,0.0,53,0.00,,---,0.00,VWS V14.00,2013-05-14 02:43:00,
2013-05-13 21:46:00,66.7,49.6,29.21,SW,222,0.0,0.0,54,0.00,,---,0.00,VWS V14.00,2013-05-14 02:46:00,
2013-05-13 21:51:00,66.7,49.1,29.21,SW,222,0.0,0.0,53,0.00,,---,0.00,VWS V14.00,2013-05-14 02:51:00,
2013-05-13 21:52:00,66.7,49.1,29.21,SW,222,0.0,0.0,53,0.00,,---,0.00,VWS V14.00,2013-05-14 02:52:00,
2013-05-13 21:55:00,66.5,48.9,29.21,SW,222,0.0,0.0,53,0.00,,---,0.00,VWS V14.00,2013-05-14 02:55:00,
2013-05-13 21:58:00,66.5,49.4,29.21,SW,222,0.0,0.0,54,0.00,,---,0.00,VWS V14.00,2013-05-14 02:58:00,
2013-05-13 22:01:00,66.4,49.2,29.21,SW,222,0.0,0.0,54,0.00,,---,0.00,VWS V14.00,2013-05-14 03:01:00,
2013-05-13 22:04:00,66.2,49.1,29.21,SW,222,0.0,0.0,54,0.00,,---,0.00,VWS V14.00,2013-05-14 03:04:00,
2013-05-13 22:06:00,66.2,49.1,29.21,SW,222,0.0,0.0,54,0.00,,---,0.00,VWS V14.00,2013-05-14 03:06:00,
2013-05-13 22:10:00,66.0,48.9,29.21,SW,222,0.0,0.0,54,0.00,,---,0.00,VWS V14.00,2013-05-14 03:10:00,
2013-05-13 22:16:00,65.6,50.0,29.21,SW,222,0.0,0.0,57,0.00,,---,0.00,VWS V14.00,2013-05-14 03:16:00,
2013-05-13 22:21:00,65.5,50.3,29.21,SW,222,0.0,0.0,58,0.00,,---,0.00,VWS V14.00,2013-05-14 03:21:00,
2013-05-13 22:22:00,65.5,49.8,29.21,SW,222,0.0,0.0,57,0.00,,---,0.00,VWS V14.00,2013-05-14 03:22:00,
2013-05-13 22:25:00,65.3,50.1,29.21,SW,222,0.0,0.0,58,0.00,,---,0.00,VWS V14.00,2013-05-14 03:25:00,
2013-05-13 22:28:00,65.3,50.1,29.21,SW,222,0.0,0.0,58,0.00,,---,0.00,VWS V14.00,2013-05-14 03:28:00,
2013-05-13 22:31:00,65.1,50.0,29.21,SW,222,0.0,0.0,58,0.00,,---,0.00,VWS V14.00,2013-05-14 03:31:00,
2013-05-13 22:34:00,64.9,49.8,29.21,SW,222,0.0,0.0,58,0.00,,---,0.00,VWS V14.00,2013-05-14 03:34:00,
2013-05-13 22:36:00,64.9,49.8,29.21,SW,222,0.0,0.0,58,0.00,,---,0.00,VWS V14.00,2013-05-14 03:36:00,
2013-05-13 22:37:00,64.7,49.6,29.21,SW,222,0.0,0.0,58,0.00,,---,0.00,VWS V14.00,2013-05-14 03:37:00,
2013-05-13 22:40:00,64.7,50.1,29.21,SW,222,0.0,0.0,59,0.00,,---,0.00,VWS V14.00,2013-05-14 03:40:00,
2013-05-13 22:46:00,64.4,49.8,29.21,SW,222,0.0,0.0,59,0.00,,---,0.00,VWS V14.00,2013-05-14 03:46:00,
2013-05-13 22:51:00,63.8,51.0,29.21,SW,223,0.0,0.0,63,0.00,,---,0.00,VWS V14.00,2013-05-14 03:51:00,
2013-05-13 22:52:00,63.8,51.4,29.21,SW,223,0.0,0.0,64,0.00,,---,0.00,VWS V14.00,2013-05-14 03:52:00,
2013-05-13 22:55:00,63.7,51.7,29.21,SW,223,0.0,0.0,65,0.00,,---,0.00,VWS V14.00,2013-05-14 03:55:00,
2013-05-13 22:58:00,63.5,51.9,29.21,SW,223,0.0,0.0,66,0.00,,---,0.00,VWS V14.00,2013-05-14 03:58:00,
2013-05-13 23:01:00,63.3,51.8,29.21,SW,223,0.0,0.0,66,0.00,,---,0.00,VWS V14.00,2013-05-14 04:01:00,
2013-05-13 23:07:00,63.1,52.0,29.21,SW,223,0.0,0.0,67,0.00,,---,0.00,VWS V14.00,2013-05-14 04:07:00,
2013-05-13 23:10:00,63.1,51.6,29.21,SW,223,0.0,0.0,66,0.00,,---,0.00,VWS V14.00,2013-05-14 04:10:00,
2013-05-13 23:16:00,63.1,51.2,29.21,SW,223,0.0,0.0,65,0.00,,---,0.00,VWS V14.00,2013-05-14 04:16:00,
2013-05-13 23:19:00,62.9,51.4,29.21,SW,223,0.0,0.0,66,0.00,,---,0.00,VWS V14.00,2013-05-14 04:19:00,
2013-05-13 23:21:00,62.9,51.4,29.21,SW,223,0.0,0.0,66,0.00,,---,0.00,VWS V14.00,2013-05-14 04:21:00,
2013-05-13 23:25:00,62.8,51.2,29.21,SW,223,0.0,0.0,66,0.00,,---,0.00,VWS V14.00,2013-05-14 04:25:00,
2013-05-13 23:31:00,62.6,51.5,29.21,SW,223,0.0,0.0,67,0.00,,---,0.00,VWS V14.00,2013-05-14 04:31:00,
2013-05-13 23:34:00,62.6,51.9,29.21,SW,223,0.0,0.0,68,0.00,,---,0.00,VWS V14.00,2013-05-14 04:34:00,
2013-05-13 23:40:00,62.4,51.7,29.21,SW,223,0.0,0.0,68,0.00,,---,0.00,VWS V14.00,2013-05-14 04:40:00,
2013-05-13 23:43:00,62.4,51.7,29.21,SW,223,0.0,0.0,68,0.00,,---,0.00,VWS V14.00,2013-05-14 04:43:00,
2013-05-13 23:49:00,62.2,51.9,29.21,SW,223,0.0,0.0,69,0.00,,---,0.00,VWS V14.00,2013-05-14 04:49:00,
2013-05-13 23:51:00,62.2,51.5,29.21,SW,223,0.0,0.0,68,0.00,,---,0.00,VWS V14.00,2013-05-14 04:51:00,
2013-05-13 23:55:00,62.2,51.5,29.21,SW,223,0.0,0.0,68,0.00,,---,0.00,VWS V14.00,2013-05-14 04:55:00,
2013-05-13 23:58:00,62.2,51.5,29.21,SW,223,0.0,0.0,68,0.00,,---,0.00,VWS V14.00,2013-05-14 04:58:00,